Weather History for KROC - September, 2012

Change the Weather History Date:

Saturday, September 22, 2012

  Actual Average Record
Temperature  
Mean Temperature 58 °F 59 °F  
Max Temperature 68 °F 69 °F 93 °F (1895)
Min Temperature 48 °F 50 °F 36 °F (1963)
Degree Days  
Heating Degree Days 7 7  
Month to date heating degree days 62 83  
Since 1 July heating degree days 69 117  
Cooling Degree Days 0 1  
Month to date cooling degree days 62 44  
Year to date cooling degree days 797 528  
Growing Degree Days 8 (Base 50)    
Moisture  
Dew Point 52 °F    
Average Humidity 80    
Maximum Humidity 100    
Minimum Humidity 60    
Precipitation  
Precipitation 0.16 in 0.12 in 1.33 in (1938)
Month to date precipitation 4.11 2.49  
Year to date precipitation 24.60 25.09  
Snow  
Snow 0.00 in 0.00 in 0.00 in ()
Month to date snowfall 0.0 0.0  
Since 1 July snowfall 0.0 0.0  
Since 1 September snowfall 0.0 0.0  
Snow Depth 0.00 in    
Sea Level Pressure  
Sea Level Pressure 29.77 in    
Wind  
Wind Speed 9 mph (WSW)    
Max Wind Speed 24 mph    
Max Gust Speed 36 mph    
Visibility 10 miles    
Events Rain    
T = Trace of Precipitation, MM = Missing Value Source: NWS Daily Summary

Daily Weather History Graph

Daily Weather History Graph

Search for Another Location

Airport or City:

Trip Planner

Search our weather history database for the weather conditions in past years. The results will help you decide how hot, cold, wet, or windy it might be!

Date:

Astronomy

Sep. 22, 2012 Rise Set
Actual Time 6:58 AM EDT 7:07 PM EDT
Civil Twilight 6:30 AM EDT 7:35 PM EDT
Nautical Twilight 5:56 AM EDT 8:08 PM EDT
Astronomical Twilight 5:22 AM EDT 8:42 PM EDT
Moon 2:24 PM EDT (9/22) No Moon Set
Length of Visible Light 13h 05m
Length of Day
12h 08m
Waxing Crescent, 48% of the Moon is Illuminated
Sep 22
Waxing Crescent
Sep 22
First Quarter
Sep 29
Full
Oct 8
Last Quarter
Oct 15
New

Hourly Weather History & Observations

Time (EDT) Temp. Dew Point Humidity Pressure Visibility Wind Dir Wind Speed Gust Speed Precip Events Conditions
12:54 AM 59.0 °F 55.9 °F 90% 29.82 in 10.0 mi NNE 5.8 mph - N/A   Overcast
1:54 AM 59.0 °F 55.9 °F 90% 29.78 in 10.0 mi SE 5.8 mph - 0.00 in Rain Light Rain
2:54 AM 61.0 °F 54.0 °F 78% 29.70 in 10.0 mi ESE 6.9 mph - 0.00 in   Overcast
3:54 AM 62.1 °F 55.9 °F 80% 29.65 in 10.0 mi SE 9.2 mph - 0.00 in Rain Light Rain
4:54 AM 64.0 °F 57.9 °F 80% 29.62 in 10.0 mi SW 5.8 mph - 0.00 in   Mostly Cloudy
5:54 AM 63.0 °F 57.0 °F 81% 29.61 in 10.0 mi West 15.0 mph 26.5 mph 0.00 in   Overcast
6:04 AM 62.6 °F 57.2 °F 82% 29.64 in 10.0 mi WNW 17.3 mph 35.7 mph 0.00 in Rain Light Rain
6:42 AM 57.2 °F 55.4 °F 94% 29.67 in 5.0 mi West 8.1 mph - 0.11 in Rain Rain
6:54 AM 57.0 °F 55.0 °F 93% 29.68 in 10.0 mi WSW 5.8 mph - 0.12 in Rain Light Rain
7:45 AM 55.4 °F 55.4 °F 100% 29.73 in 10.0 mi WSW 10.4 mph - 0.03 in Rain Light Rain
7:54 AM 55.9 °F 55.0 °F 97% 29.73 in 10.0 mi WSW 9.2 mph - 0.03 in Rain Light Rain
8:54 AM 57.0 °F 55.0 °F 93% 29.74 in 10.0 mi SSW 4.6 mph - 0.01 in   Overcast
9:44 AM 57.2 °F 55.4 °F 94% 29.74 in 10.0 mi SSW 4.6 mph - N/A   Overcast
9:54 AM 57.9 °F 55.0 °F 90% 29.75 in 10.0 mi SSW 4.6 mph - N/A   Overcast
10:54 AM 59.0 °F 55.0 °F 87% 29.76 in 10.0 mi NW 4.6 mph - N/A   Mostly Cloudy
11:54 AM 59.0 °F 54.0 °F 83% 29.76 in 10.0 mi WSW 10.4 mph - 0.00 in   Overcast
12:30 PM 60.8 °F 51.8 °F 72% 29.77 in 10.0 mi WSW 11.5 mph - N/A   Overcast
12:54 PM 59.0 °F 52.0 °F 78% 29.78 in 10.0 mi West 11.5 mph - N/A   Mostly Cloudy
1:54 PM 60.1 °F 50.0 °F 69% 29.78 in 10.0 mi West 8.1 mph - N/A   Overcast
2:54 PM 60.1 °F 48.0 °F 64% 29.80 in 10.0 mi West 10.4 mph 20.7 mph N/A   Mostly Cloudy
3:54 PM 61.0 °F 46.9 °F 60% 29.80 in 10.0 mi WSW 15.0 mph 20.7 mph N/A   Mostly Cloudy
4:54 PM 63.0 °F 48.9 °F 60% 29.80 in 10.0 mi WSW 16.1 mph 26.5 mph N/A   Mostly Cloudy
5:54 PM 59.0 °F 48.0 °F 67% 29.81 in 10.0 mi WSW 9.2 mph 17.3 mph N/A   Mostly Cloudy
6:54 PM 57.0 °F 48.0 °F 72% 29.84 in 10.0 mi SW 6.9 mph - N/A   Mostly Cloudy
7:54 PM 55.9 °F 48.9 °F 77% 29.84 in 10.0 mi WSW 5.8 mph - 0.00 in Rain Light Rain
8:54 PM 55.9 °F 48.9 °F 77% 29.86 in 10.0 mi West 6.9 mph - 0.00 in   Mostly Cloudy
9:54 PM 55.9 °F 46.9 °F 72% 29.88 in 10.0 mi West 9.2 mph - 0.00 in Rain Light Rain
10:54 PM 52.0 °F 43.0 °F 71% 29.92 in 10.0 mi WSW 9.2 mph - 0.00 in Rain Light Rain
11:54 PM 50.0 °F 44.1 °F 80% 29.93 in 10.0 mi SW 8.1 mph - 0.00 in   Overcast